TimeCST,TemperatureF,Dew PointF,Humidity,Sea Level PressureIn,VisibilityMPH,Wind Direction,Wind SpeedMPH,Gust SpeedMPH,PrecipitationIn,Events,Conditions,WindDirDegrees,DateUTC
12:53 AM,19.9,18.0,92,29.87,10.0,Calm,Calm,-,N/A,,Overcast,0,2013-02-13 06:53:00
1:53 AM,23.0,21.0,92,29.86,10.0,Calm,Calm,-,N/A,,Overcast,0,2013-02-13 07:53:00
2:53 AM,21.0,19.0,92,29.85,10.0,South,3.5,-,N/A,,Overcast,190,2013-02-13 08:53:00
3:53 AM,21.0,19.9,96,29.83,10.0,Calm,Calm,-,N/A,,Overcast,0,2013-02-13 09:53:00
4:53 AM,17.1,15.1,92,29.82,10.0,South,4.6,-,N/A,,Clear,180,2013-02-13 10:53:00
6:53 AM,14.0,12.9,95,29.78,7.0,South,6.9,-,N/A,,Clear,180,2013-02-13 12:53:00
7:53 AM,15.1,12.9,91,29.78,10.0,Calm,Calm,-,N/A,,Clear,0,2013-02-13 13:53:00
8:53 AM,18.0,17.1,96,29.78,10.0,Calm,Calm,-,N/A,,Clear,0,2013-02-13 14:53:00
9:53 AM,19.0,17.1,92,29.76,10.0,South,5.8,-,N/A,,Clear,180,2013-02-13 15:53:00
10:53 AM,26.1,21.9,84,29.75,10.0,WSW,9.2,-,N/A,,Overcast,240,2013-02-13 16:53:00
11:53 AM,28.9,25.0,85,29.71,10.0,South,4.6,-,0.06,,Overcast,190,2013-02-13 17:53:00
12:53 PM,30.9,26.1,82,29.66,10.0,South,9.2,-,N/A,,Overcast,180,2013-02-13 18:53:00
1:53 PM,33.1,28.0,82,29.63,10.0,SSW,10.4,-,N/A,,Overcast,200,2013-02-13 19:53:00
2:53 PM,33.1,28.0,82,29.62,7.0,WSW,15.0,-,0.00,Snow,Light Snow,240,2013-02-13 20:53:00
3:53 PM,33.1,28.9,85,29.62,10.0,WSW,12.7,-,0.00,,Overcast,240,2013-02-13 21:53:00
4:37 PM,33.8,28.4,81,29.56,10.0,West,13.8,-,N/A,,Overcast,270,2013-02-13 22:37:00
4:53 PM,34.0,28.9,82,29.62,10.0,West,13.8,-,N/A,,Overcast,270,2013-02-13 22:53:00
5:53 PM,35.1,30.0,82,29.63,10.0,WNW,15.0,20.7,N/A,,Overcast,290,2013-02-13 23:53:00
6:40 PM,35.6,30.2,81,29.58,10.0,WNW,17.3,28.8,N/A,,Overcast,300,2013-02-14 00:40:00
6:53 PM,34.0,30.9,89,29.65,8.0,WNW,17.3,-,N/A,,Overcast,300,2013-02-14 00:53:00
7:30 PM,33.8,30.2,87,29.59,10.0,NW,19.6,25.3,N/A,,Overcast,310,2013-02-14 01:30:00
7:53 PM,33.1,30.9,92,29.68,10.0,NW,23.0,33.4,N/A,,Overcast,320,2013-02-14 01:53:00
8:40 PM,30.2,28.4,93,29.63,10.0,NNW,21.9,29.9,N/A,,Overcast,330,2013-02-14 02:40:00
8:53 PM,30.0,28.0,92,29.71,10.0,NNW,21.9,-,N/A,,Overcast,340,2013-02-14 02:53:00
9:53 PM,28.0,26.1,92,29.74,10.0,NNW,17.3,-,N/A,,Overcast,340,2013-02-14 03:53:00
10:53 PM,27.0,25.0,92,29.76,10.0,NNW,16.1,-,N/A,,Overcast,340,2013-02-14 04:53:00
11:48 PM,26.6,23.0,86,29.73,10.0,NNW,19.6,-,N/A,,Overcast,330,2013-02-14 05:48:00
11:53 PM,26.1,23.0,88,29.80,10.0,NNW,17.3,-,N/A,,Overcast,330,2013-02-14 05:53:00